^^
Saratoga-Weather Station Historical Data
Daily Summary for May 24, 2020 Units:  Metric    English   Both
Daily Weekly Monthly Yearly Custom
  High: Low: Average:
Temperature: 22.3 °C 14.6 °C 18.3 °C
Dew Point: 12.9 °C 9.9 °C 11.6 °C
Humidity: 85% 48% 66%
Wind Speed: 16.3km/h 0km/h 4.2km/h
Wind Gust: 24.1km/h - -
Wind- - West
Pressure: 1018.0 hPa 1014.9 hPa -
Precipitation: 0.0 mm    
Historical Graphs
 
 
Tabular Data for May 24, 2020
Time Temperature Dew Point Pressure Wind Wind Speed Wind Gust Humidity Rainfall Rate (Hourly) solar
00:02 17.4 °C 12.7 °C 1018.0 hPa WSW 1.4 km/h 4.8 km/h 74% 0.0 mm 0 W/m2
00:07 17.3 °C 12.8 °C 1018.0 hPa Calm   1.6 km/h 75% 0.0 mm 0 W/m2
00:12 17.3 °C 12.8 °C 1018.0 hPa WSW 1.4 km/h 1.6 km/h 75% 0.0 mm 0 W/m2
00:17 17.3 °C 12.8 °C 1018.0 hPa Calm   1.6 km/h 75% 0.0 mm 0 W/m2
00:22 17.3 °C 12.8 °C 1018.0 hPa WSW 1.4 km/h 3.2 km/h 75% 0.0 mm 0 W/m2
00:27 17.3 °C 12.8 °C 1018.0 hPa Calm   1.6 km/h 75% 0.0 mm 0 W/m2
00:32 17.2 °C 12.9 °C 1018.0 hPa Calm   1.6 km/h 76% 0.0 mm 0 W/m2
00:37 17.2 °C 12.9 °C 1018.0 hPa Calm     76% 0.0 mm 0 W/m2
00:42 17.2 °C 12.9 °C 1018.0 hPa Calm   1.6 km/h 76% 0.0 mm 0 W/m2
00:47 17.1 °C 12.8 °C 1018.0 hPa Calm     76% 0.0 mm 0 W/m2
00:52 17.1 °C 12.8 °C 1017.6 hPa Calm     76% 0.0 mm 0 W/m2
00:57 17.1 °C 12.8 °C 1018.0 hPa Calm     76% 0.0 mm 0 W/m2
01:02 17 °C 12.9 °C 1018.0 hPa Calm     77% 0.0 mm 0 W/m2
01:07 16.9 °C 12.8 °C 1018.0 hPa Calm     77% 0.0 mm 0 W/m2
01:12 16.9 °C 12.8 °C 1018.0 hPa Calm     77% 0.0 mm 0 W/m2
01:17 16.8 °C 12.7 °C 1017.6 hPa Calm     77% 0.0 mm 0 W/m2
01:22 16.8 °C 12.9 °C 1017.6 hPa WSW 1.4 km/h 1.6 km/h 78% 0.0 mm 0 W/m2
01:27 16.7 °C 12.8 °C 1017.6 hPa Calm     78% 0.0 mm 0 W/m2
01:32 16.6 °C 12.7 °C 1017.6 hPa Calm     78% 0.0 mm 0 W/m2
01:37 16.5 °C 12.8 °C 1017.6 hPa Calm     79% 0.0 mm 0 W/m2
01:42 16.4 °C 12.7 °C 1017.6 hPa Calm     79% 0.0 mm 0 W/m2
01:47 16.3 °C 12.7 °C 1017.6 hPa Calm     79% 0.0 mm 0 W/m2
01:52 16.3 °C 12.7 °C 1017.6 hPa Calm     79% 0.0 mm 0 W/m2
01:57 16.2 °C 12.7 °C 1017.6 hPa Calm     80% 0.0 mm 0 W/m2
02:02 16.2 °C 12.7 °C 1017.6 hPa Calm     80% 0.0 mm 0 W/m2
02:07 16.2 °C 12.7 °C 1017.6 hPa WSW 1.4 km/h 1.6 km/h 80% 0.0 mm 0 W/m2
02:12 16.2 °C 12.7 °C 1017.6 hPa Calm     80% 0.0 mm 0 W/m2
02:17 16.2 °C 12.7 °C 1017.3 hPa Calm     80% 0.0 mm 0 W/m2
02:22 16.2 °C 12.6 °C 1017.3 hPa Calm     79% 0.0 mm 0 W/m2
02:27 16.2 °C 12.7 °C 1017.3 hPa Calm     80% 0.0 mm 0 W/m2
02:32 16.1 °C 12.6 °C 1017.3 hPa Calm     80% 0.0 mm 0 W/m2
02:37 16.1 °C 12.6 °C 1017.3 hPa Calm     80% 0.0 mm 0 W/m2
02:42 16 °C 12.7 °C 1017.3 hPa Calm     81% 0.0 mm 0 W/m2
02:47 15.9 °C 12.6 °C 1017.3 hPa Calm     81% 0.0 mm 0 W/m2
02:52 15.9 °C 12.6 °C 1017.3 hPa Calm     81% 0.0 mm 0 W/m2
02:57 15.9 °C 12.6 °C 1017.3 hPa Calm     81% 0.0 mm 0 W/m2
03:02 15.8 °C 12.7 °C 1017.3 hPa Calm     82% 0.0 mm 0 W/m2
03:07 15.8 °C 12.7 °C 1017.3 hPa Calm   1.6 km/h 82% 0.0 mm 0 W/m2
03:12 15.8 °C 12.7 °C 1017.3 hPa Calm     82% 0.0 mm 0 W/m2
03:17 15.7 °C 12.6 °C 1017.3 hPa Calm     82% 0.0 mm 0 W/m2
03:22 15.7 °C 12.6 °C 1017.3 hPa West 1.4 km/h 3.2 km/h 82% 0.0 mm 0 W/m2
03:27 15.7 °C 12.4 °C 1017.3 hPa Calm   1.6 km/h 81% 0.0 mm 0 W/m2
03:32 15.7 °C 12.4 °C 1017.3 hPa WSW 3.2 km/h 4.8 km/h 81% 0.0 mm 0 W/m2
03:37 15.8 °C 12.4 °C 1017.3 hPa WNW 1.4 km/h 3.2 km/h 80% 0.0 mm 0 W/m2
03:42 15.8 °C 12.4 °C 1017.3 hPa West 1.4 km/h 3.2 km/h 80% 0.0 mm 0 W/m2
03:47 15.9 °C 12.5 °C 1017.3 hPa WSW 1.4 km/h 6.4 km/h 80% 0.0 mm 0 W/m2
03:52 15.9 °C 12.3 °C 1017.3 hPa West 1.4 km/h 9.7 km/h 79% 0.0 mm 0 W/m2
03:57 16 °C 12.4 °C 1017.3 hPa West 1.4 km/h 4.8 km/h 79% 0.0 mm 0 W/m2
04:02 16 °C 12.4 °C 1017.3 hPa Calm   9.7 km/h 79% 0.0 mm 0 W/m2
04:07 16 °C 12.4 °C 1017.3 hPa Calm   3.2 km/h 79% 0.0 mm 0 W/m2
04:12 15.9 °C 12.1 °C 1016.9 hPa Calm   4.8 km/h 78% 0.0 mm 0 W/m2
04:17 15.8 °C 12 °C 1016.9 hPa WSW 1.4 km/h 3.2 km/h 78% 0.0 mm 0 W/m2
04:22 15.8 °C 12 °C 1016.9 hPa WSW 3.2 km/h 4.8 km/h 78% 0.0 mm 0 W/m2
04:27 15.8 °C 12.2 °C 1016.9 hPa West 3.2 km/h 11.3 km/h 79% 0.0 mm 0 W/m2
04:32 15.7 °C 11.9 °C 1016.9 hPa WNW 9.7 km/h 9.7 km/h 78% 0.0 mm 0 W/m2
04:37 15.8 °C 12 °C 1016.9 hPa WNW 1.4 km/h 4.8 km/h 78% 0.0 mm 0 W/m2
04:42 15.8 °C 11.8 °C 1016.9 hPa West 6.4 km/h 6.4 km/h 77% 0.0 mm 0 W/m2
04:47 15.8 °C 11.8 °C 1016.9 hPa WSW 3.2 km/h 6.4 km/h 77% 0.0 mm 0 W/m2
04:52 15.8 °C 11.8 °C 1016.9 hPa West 4.7 km/h 6.4 km/h 77% 0.0 mm 0 W/m2
04:57 15.8 °C 11.8 °C 1016.9 hPa West 6.4 km/h 11.3 km/h 77% 0.0 mm 0 W/m2
05:02 15.9 °C 11.9 °C 1016.9 hPa WNW 3.2 km/h 4.8 km/h 77% 0.0 mm 0 W/m2
05:07 15.9 °C 11.9 °C 1016.9 hPa West 4.7 km/h 11.3 km/h 77% 0.0 mm 0 W/m2
05:12 15.9 °C 11.9 °C 1016.9 hPa SW 1.4 km/h 4.8 km/h 77% 0.0 mm 0 W/m2
05:17 15.8 °C 12 °C 1016.9 hPa West 3.2 km/h 6.4 km/h 78% 0.0 mm 0 W/m2
05:22 15.8 °C 12 °C 1016.9 hPa West 3.2 km/h 4.8 km/h 78% 0.0 mm 0 W/m2
05:27 15.9 °C 12.1 °C 1016.9 hPa West 3.2 km/h 9.7 km/h 78% 0.0 mm 0 W/m2
05:32 15.9 °C 12.3 °C 1016.9 hPa NW 3.2 km/h 6.4 km/h 79% 0.0 mm 0 W/m2
05:37 15.8 °C 12.4 °C 1016.9 hPa West 3.2 km/h 9.7 km/h 80% 0.0 mm 0 W/m2
05:42 15.7 °C 12.3 °C 1016.9 hPa West 4.7 km/h 6.4 km/h 80% 0.0 mm 0 W/m2
05:47 15.6 °C 12.4 °C 1016.9 hPa WSW 4.7 km/h 6.4 km/h 81% 0.0 mm 0 W/m2
05:52 15.4 °C 12.3 °C 1016.9 hPa West 3.2 km/h 6.4 km/h 82% 0.0 mm 0 W/m2
05:57 15.3 °C 12.4 °C 1016.9 hPa West 1.4 km/h 4.8 km/h 83% 0.0 mm 0 W/m2
06:02 15.3 °C 12.4 °C 1016.6 hPa WNW 4.7 km/h 6.4 km/h 83% 0.0 mm 0 W/m2
06:07 15.1 °C 12.4 °C 1016.6 hPa WSW 1.4 km/h 4.8 km/h 84% 0.0 mm 0 W/m2
06:12 15 °C 12.3 °C 1016.6 hPa West 3.2 km/h 8 km/h 84% 0.0 mm 0 W/m2
06:17 14.9 °C 12.2 °C 1016.6 hPa WSW 3.2 km/h 6.4 km/h 84% 0.0 mm 0 W/m2
06:22 14.8 °C 12.3 °C 1016.6 hPa West 4.7 km/h 4.8 km/h 85% 0.0 mm 0 W/m2
06:27 14.8 °C 12.3 °C 1016.6 hPa West 3.2 km/h 4.8 km/h 85% 0.0 mm 0 W/m2
06:33 14.8 °C 12.3 °C 1016.6 hPa WSW 1.4 km/h 4.8 km/h 85% 0.0 mm 0 W/m2
06:38 14.7 °C 12.2 °C 1016.6 hPa West 3.2 km/h 6.4 km/h 85% 0.0 mm 0 W/m2
06:43 14.7 °C 12 °C 1016.6 hPa West 1.4 km/h 3.2 km/h 84% 0.0 mm 0 W/m2
06:48 14.7 °C 12 °C 1016.6 hPa WSW 4.7 km/h 4.8 km/h 84% 0.0 mm 0 W/m2
06:53 14.7 °C 12 °C 1016.6 hPa West 1.4 km/h 3.2 km/h 84% 0.0 mm 5 W/m2
06:59 14.6 °C 11.9 °C 1016.6 hPa West 1.4 km/h 3.2 km/h 84% 0.0 mm 9 W/m2
07:04 14.6 °C 11.9 °C 1016.9 hPa West 1.4 km/h 6.4 km/h 84% 0.0 mm 12 W/m2
07:09 14.6 °C 11.9 °C 1016.9 hPa West 4.7 km/h 4.8 km/h 84% 0.0 mm 16 W/m2
07:14 14.7 °C 12 °C 1016.6 hPa West 6.4 km/h 9.7 km/h 84% 0.0 mm 12 W/m2
07:19 14.7 °C 12 °C 1016.9 hPa WSW 1.4 km/h 6.4 km/h 84% 0.0 mm 16 W/m2
07:24 14.8 °C 12.1 °C 1016.9 hPa West 1.4 km/h 9.7 km/h 84% 0.0 mm 26 W/m2
07:29 14.8 °C 12.1 °C 1016.9 hPa West 4.7 km/h 6.4 km/h 84% 0.0 mm 44 W/m2
07:34 14.8 °C 12.1 °C 1016.9 hPa West 1.4 km/h 6.4 km/h 84% 0.0 mm 39 W/m2
07:39 14.9 °C 12.2 °C 1016.9 hPa WNW 4.7 km/h 6.4 km/h 84% 0.0 mm 46 W/m2
07:44 15 °C 12.3 °C 1016.9 hPa WNW 4.7 km/h 6.4 km/h 84% 0.0 mm 77 W/m2
07:49 15.2 °C 12.3 °C 1016.9 hPa WNW 3.2 km/h 6.4 km/h 83% 0.0 mm 42 W/m2
07:54 15.3 °C 12.2 °C 1016.9 hPa WNW 3.2 km/h 6.4 km/h 82% 0.0 mm 35 W/m2
07:59 15.4 °C 12.3 °C 1016.9 hPa West 4.7 km/h 11.3 km/h 82% 0.0 mm 56 W/m2
08:04 15.6 °C 12.4 °C 1016.9 hPa NW 4.7 km/h 6.4 km/h 81% 0.0 mm 67 W/m2
08:09 15.6 °C 12.4 °C 1016.9 hPa West 6.4 km/h 6.4 km/h 81% 0.0 mm 42 W/m2
08:14 15.7 °C 12.4 °C 1016.9 hPa Calm   4.8 km/h 81% 0.0 mm 60 W/m2
08:19 15.7 °C 12.4 °C 1016.9 hPa WSW 3.2 km/h 6.4 km/h 81% 0.0 mm 102 W/m2
08:24 15.7 °C 12.3 °C 1016.9 hPa WNW 3.2 km/h 6.4 km/h 80% 0.0 mm 77 W/m2
08:29 15.8 °C 12.4 °C 1016.9 hPa WSW 4.7 km/h 12.9 km/h 80% 0.0 mm 79 W/m2
08:34 15.9 °C 12.3 °C 1016.9 hPa WSW 3.2 km/h 9.7 km/h 79% 0.0 mm 91 W/m2
08:39 15.9 °C 12.3 °C 1016.9 hPa West 4.7 km/h 12.9 km/h 79% 0.0 mm 97 W/m2
08:44 16 °C 12.4 °C 1016.9 hPa West 6.4 km/h 11.3 km/h 79% 0.0 mm 160 W/m2
08:49 16 °C 12.4 °C 1016.9 hPa West 6.4 km/h 16.1 km/h 79% 0.0 mm 123 W/m2
08:54 16 °C 12.6 °C 1016.9 hPa West 4.7 km/h 4.8 km/h 80% 0.0 mm 137 W/m2
08:59 16 °C 12.6 °C 1016.9 hPa WNW 3.2 km/h 16.1 km/h 80% 0.0 mm 188 W/m2
09:04 16.1 °C 12.6 °C 1016.9 hPa SSW 3.2 km/h 6.4 km/h 80% 0.0 mm 232 W/m2
09:09 16.2 °C 12.6 °C 1016.9 hPa WNW 3.2 km/h 6.4 km/h 79% 0.0 mm 269 W/m2
09:14 16.4 °C 12.4 °C 1016.9 hPa WSW 7.9 km/h 12.9 km/h 77% 0.0 mm 202 W/m2
09:19 16.4 °C 12.2 °C 1016.9 hPa WNW 3.2 km/h 4.8 km/h 76% 0.0 mm 281 W/m2
09:24 16.6 °C 12.6 °C 1016.9 hPa West 9.7 km/h 11.3 km/h 77% 0.0 mm 162 W/m2
09:29 16.6 °C 12.4 °C 1016.9 hPa WNW 3.2 km/h 9.7 km/h 76% 0.0 mm 156 W/m2
09:34 16.7 °C 12.4 °C 1016.9 hPa NW 11.1 km/h 11.3 km/h 76% 0.0 mm 153 W/m2
09:39 16.6 °C 12.4 °C 1016.9 hPa West 9.7 km/h 11.3 km/h 76% 0.0 mm 315 W/m2
09:44 16.7 °C 12.4 °C 1016.9 hPa NW 9.7 km/h 14.5 km/h 76% 0.0 mm 260 W/m2
09:49 16.8 °C 12.5 °C 1016.9 hPa WNW 3.2 km/h 6.4 km/h 76% 0.0 mm 404 W/m2
09:54 16.9 °C 12.6 °C 1016.9 hPa SW 1.4 km/h 16.1 km/h 76% 0.0 mm 378 W/m2
09:59 17.1 °C 12.6 °C 1016.9 hPa SW 3.2 km/h 9.7 km/h 75% 0.0 mm 257 W/m2
10:04 17.2 °C 12.5 °C 1016.9 hPa West 6.4 km/h 12.9 km/h 74% 0.0 mm 322 W/m2
10:09 17.2 °C 12.1 °C 1016.9 hPa WSW 6.4 km/h 8 km/h 72% 0.0 mm 283 W/m2
10:14 17.2 °C 12.1 °C 1016.9 hPa NNW 6.4 km/h 11.3 km/h 72% 0.0 mm 148 W/m2
10:19 17.3 °C 12.2 °C 1016.9 hPa WNW 6.4 km/h 6.4 km/h 72% 0.0 mm 211 W/m2
10:24 17.2 °C 11.9 °C 1016.9 hPa WSW 4.7 km/h 6.4 km/h 71% 0.0 mm 199 W/m2
10:29 17.3 °C 11.8 °C 1016.9 hPa WNW 6.4 km/h 8 km/h 70% 0.0 mm 469 W/m2
10:34 17.6 °C 12.1 °C 1016.9 hPa WNW 4.7 km/h 9.7 km/h 70% 0.0 mm 457 W/m2
10:39 17.8 °C 12 °C 1016.9 hPa WNW 3.2 km/h 4.8 km/h 69% 0.0 mm 250 W/m2
10:44 17.8 °C 11.8 °C 1017.3 hPa West 13 km/h 12.9 km/h 68% 0.0 mm 362 W/m2
10:49 17.8 °C 11.6 °C 1016.9 hPa WSW 13 km/h 16.1 km/h 67% 0.0 mm 190 W/m2
10:54 17.9 °C 11.7 °C 1017.3 hPa WNW 11.1 km/h 19.3 km/h 67% 0.0 mm 253 W/m2
10:59 18.1 °C 11.6 °C 1016.9 hPa WNW 6.4 km/h 9.7 km/h 66% 0.0 mm 332 W/m2
11:04 18.3 °C 11.6 °C 1016.9 hPa SW 4.7 km/h 9.7 km/h 65% 0.0 mm 366 W/m2
11:09 18.4 °C 11.9 °C 1016.9 hPa NNW 6.4 km/h 6.4 km/h 66% 0.0 mm 691 W/m2
11:14 18.8 °C 12.1 °C 1016.9 hPa WNW 4.7 km/h 9.7 km/h 65% 0.0 mm 740 W/m2
11:19 19.1 °C 12.1 °C 1016.9 hPa West 1.4 km/h 17.7 km/h 64% 0.0 mm 178 W/m2
11:24 19.2 °C 11.5 °C 1016.9 hPa WNW 6.4 km/h 9.7 km/h 61% 0.0 mm 773 W/m2
11:29 19.3 °C 11.3 °C 1016.9 hPa WNW 14.3 km/h 19.3 km/h 60% 0.0 mm 814 W/m2
11:34 19 °C 11.3 °C 1016.9 hPa West 4.7 km/h 9.7 km/h 61% 0.0 mm 186 W/m2
11:40 19 °C 11.3 °C 1016.9 hPa NW 7.9 km/h 19.3 km/h 61% 0.0 mm 308 W/m2
11:45 19.1 °C 11.4 °C 1016.9 hPa WSW 13 km/h 14.5 km/h 61% 0.0 mm 287 W/m2
11:50 19.2 °C 11.5 °C 1016.9 hPa SW 6.4 km/h 12.9 km/h 61% 0.0 mm 294 W/m2
11:55 19.3 °C 11.6 °C 1016.9 hPa WSW 13 km/h 12.9 km/h 61% 0.0 mm 253 W/m2
12:00 19.1 °C 11.4 °C 1016.9 hPa WSW 16.3 km/h 16.1 km/h 61% 0.0 mm 262 W/m2
12:05 18.9 °C 11.5 °C 1016.9 hPa West 3.2 km/h 12.9 km/h 62% 0.0 mm 279 W/m2
12:10 19.2 °C 11.5 °C 1016.9 hPa West 6.4 km/h 9.7 km/h 61% 0.0 mm 643 W/m2
12:15 19.3 °C 11.3 °C 1016.9 hPa WSW 7.9 km/h 14.5 km/h 60% 0.0 mm 258 W/m2
12:20 19.2 °C 11 °C 1016.9 hPa West 4.7 km/h 12.9 km/h 59% 0.0 mm 360 W/m2
12:25 19.1 °C 10.9 °C 1016.9 hPa West 14.3 km/h 17.7 km/h 59% 0.0 mm 441 W/m2
12:30 19.5 °C 11 °C 1016.9 hPa NW 11.1 km/h 12.9 km/h 58% 0.0 mm 784 W/m2
12:35 20 °C 10.7 °C 1016.9 hPa NW 7.9 km/h 19.3 km/h 55% 0.0 mm 1000 W/m2
12:41 19.8 °C 10.2 °C 1016.9 hPa SW 4.7 km/h 11.3 km/h 54% 0.0 mm 258 W/m2
12:46 19.6 °C 10.6 °C 1016.9 hPa NW 6.4 km/h 19.3 km/h 56% 0.0 mm 287 W/m2
12:51 19.6 °C 10.6 °C 1016.9 hPa NW 16.3 km/h 16.1 km/h 56% 0.0 mm 396 W/m2
12:56 19.6 °C 10.8 °C 1016.9 hPa NW 3.2 km/h 12.9 km/h 57% 0.0 mm 341 W/m2
13:01 19.7 °C 10.9 °C 1016.9 hPa West 6.4 km/h 16.1 km/h 57% 0.0 mm 403 W/m2
13:06 19.8 °C 11 °C 1016.9 hPa WNW 6.4 km/h 17.7 km/h 57% 0.0 mm 394 W/m2
13:11 19.7 °C 10.9 °C 1016.9 hPa WNW 6.4 km/h 14.5 km/h 57% 0.0 mm 591 W/m2
13:16 20 °C 11 °C 1016.9 hPa West 9.7 km/h 17.7 km/h 56% 0.0 mm 740 W/m2
13:21 20.3 °C 11.2 °C 1016.9 hPa WNW 16.3 km/h 19.3 km/h 56% 0.0 mm 838 W/m2
13:26 20.2 °C 10.9 °C 1016.9 hPa West 13 km/h 12.9 km/h 55% 0.0 mm 1095 W/m2
13:31 20.2 °C 10.9 °C 1016.9 hPa NNW 6.4 km/h 16.1 km/h 55% 0.0 mm 404 W/m2
13:36 20.3 °C 10.7 °C 1016.9 hPa NNW 7.9 km/h 16.1 km/h 54% 0.0 mm 459 W/m2
13:41 20.3 °C 10.7 °C 1016.6 hPa WNW 4.7 km/h 12.9 km/h 54% 0.0 mm 353 W/m2
13:46 20.7 °C 11.1 °C 1016.6 hPa North 3.2 km/h 12.9 km/h 54% 0.0 mm 1146 W/m2
13:51 20.8 °C 10.9 °C 1016.6 hPa SW 6.4 km/h 12.9 km/h 53% 0.0 mm 373 W/m2
13:56 20.8 °C 10.9 °C 1016.6 hPa WSW 4.7 km/h 17.7 km/h 53% 0.0 mm 1013 W/m2
14:01 20.9 °C 11.2 °C 1016.6 hPa WNW 6.4 km/h 9.7 km/h 54% 0.0 mm 942 W/m2
14:07 20.8 °C 11.2 °C 1016.6 hPa NW 3.2 km/h 17.7 km/h 54% 0.0 mm 302 W/m2
14:12 20.9 °C 11.5 °C 1016.6 hPa West 14.3 km/h 17.7 km/h 55% 0.0 mm 287 W/m2
14:17 20.7 °C 11.1 °C 1016.6 hPa WNW 6.4 km/h 20.9 km/h 54% 0.0 mm 401 W/m2
14:22 20.8 °C 10.6 °C 1016.6 hPa West 1.4 km/h 17.7 km/h 52% 0.0 mm 1044 W/m2
14:27 20.8 °C 10.6 °C 1016.6 hPa WNW 11.1 km/h 16.1 km/h 52% 0.0 mm 508 W/m2
14:32 21 °C 10.8 °C 1016.6 hPa West 13 km/h 16.1 km/h 52% 0.0 mm 392 W/m2
14:37 20.9 °C 10.7 °C 1016.6 hPa West 3.2 km/h 16.1 km/h 52% 0.0 mm 492 W/m2
14:42 21.3 °C 11 °C 1016.3 hPa SW 16.3 km/h 24.1 km/h 52% 0.0 mm 1004 W/m2
14:47 21.4 °C 11.1 °C 1016.6 hPa NW 6.4 km/h 19.3 km/h 52% 0.0 mm 411 W/m2
14:52 21.2 °C 11.2 °C 1016.3 hPa West 6.4 km/h 6.4 km/h 53% 0.0 mm 274 W/m2
14:57 21 °C 11.1 °C 1016.3 hPa North 1.4 km/h 19.3 km/h 53% 0.0 mm 364 W/m2
15:02 21.1 °C 11.1 °C 1016.3 hPa WNW 3.2 km/h 4.8 km/h 53% 0.0 mm 206 W/m2
15:07 21.1 °C 10.9 °C 1016.6 hPa WNW 11.1 km/h 11.3 km/h 52% 0.0 mm 195 W/m2
15:12 20.9 °C 11 °C 1016.3 hPa West 4.7 km/h 12.9 km/h 53% 0.0 mm 292 W/m2
15:17 20.9 °C 11.2 °C 1016.6 hPa WSW 11.1 km/h 12.9 km/h 54% 0.0 mm 265 W/m2
15:22 20.8 °C 11.2 °C 1016.6 hPa West 11.1 km/h 12.9 km/h 54% 0.0 mm 197 W/m2
15:27 20.7 °C 11.1 °C 1016.6 hPa SW 7.9 km/h 11.3 km/h 54% 0.0 mm 246 W/m2
15:32 20.7 °C 11.1 °C 1016.3 hPa WSW 3.2 km/h 9.7 km/h 54% 0.0 mm 403 W/m2
15:37 20.9 °C 11 °C 1016.6 hPa West 4.7 km/h 14.5 km/h 53% 0.0 mm 362 W/m2
15:42 21.1 °C 11.4 °C 1016.6 hPa West 4.7 km/h 11.3 km/h 54% 0.0 mm 369 W/m2
15:47 21.4 °C 11.4 °C 1016.3 hPa NNW 4.7 km/h 12.9 km/h 53% 0.0 mm 840 W/m2
15:52 21.6 °C 11.3 °C 1016.3 hPa West 4.7 km/h 6.4 km/h 52% 0.0 mm 536 W/m2
15:57 21.8 °C 11.5 °C 1016.3 hPa WSW 4.7 km/h 6.4 km/h 52% 0.0 mm 587 W/m2
16:02 21.8 °C 10.9 °C 1016.3 hPa West 3.2 km/h 12.9 km/h 50% 0.0 mm 213 W/m2
16:07 21.6 °C 11 °C 1016.3 hPa West 3.2 km/h 4.8 km/h 51% 0.0 mm 339 W/m2
16:12 21.6 °C 11.3 °C 1016.3 hPa West 4.7 km/h 4.8 km/h 52% 0.0 mm 341 W/m2
16:17 21.6 °C 11 °C 1016.3 hPa WNW 9.7 km/h 9.7 km/h 51% 0.0 mm 373 W/m2
16:23 21.6 °C 10.7 °C 1016.3 hPa North 4.7 km/h 6.4 km/h 50% 0.0 mm 401 W/m2
16:28 21.8 °C 10.6 °C 1016.3 hPa WNW 6.4 km/h 8 km/h 49% 0.0 mm 531 W/m2
16:33 22.3 °C 11.1 °C 1015.9 hPa West 3.2 km/h 4.8 km/h 49% 0.0 mm 849 W/m2
16:38 22.3 °C 11.1 °C 1015.9 hPa South 3.2 km/h 9.7 km/h 49% 0.0 mm 206 W/m2
16:43 22.1 °C 10.9 °C 1015.9 hPa West 4.7 km/h 12.9 km/h 49% 0.0 mm 220 W/m2
16:48 22.2 °C 10.7 °C 1015.9 hPa WSW 4.7 km/h 14.5 km/h 48% 0.0 mm 775 W/m2
16:53 22.2 °C 11 °C 1015.9 hPa West 4.7 km/h 6.4 km/h 49% 0.0 mm 155 W/m2
16:58 22.2 °C 10.7 °C 1015.9 hPa West 11.1 km/h 16.1 km/h 48% 0.0 mm 153 W/m2
17:03 22.1 °C 10.9 °C 1015.9 hPa WNW 11.1 km/h 11.3 km/h 49% 0.0 mm 642 W/m2
17:08 21.8 °C 10.3 °C 1015.9 hPa West 13 km/h 14.5 km/h 48% 0.0 mm 146 W/m2
17:13 21.6 °C 10.1 °C 1015.9 hPa WNW 6.4 km/h 11.3 km/h 48% 0.0 mm 91 W/m2
17:18 21.4 °C 10.2 °C 1015.9 hPa WNW 3.2 km/h 12.9 km/h 49% 0.0 mm 123 W/m2
17:23 21.4 °C 10.2 °C 1015.9 hPa WNW 3.2 km/h 6.4 km/h 49% 0.0 mm 176 W/m2
17:28 21.3 °C 10.2 °C 1015.9 hPa West 11.1 km/h 11.3 km/h 49% 0.0 mm 207 W/m2
17:33 21.4 °C 9.9 °C 1015.6 hPa WSW 4.7 km/h 11.3 km/h 48% 0.0 mm 188 W/m2
17:38 21.4 °C 10.2 °C 1015.6 hPa WSW 7.9 km/h 8 km/h 49% 0.0 mm 163 W/m2
17:43 21.6 °C 10.4 °C 1015.6 hPa WSW 6.4 km/h 9.7 km/h 49% 0.0 mm 172 W/m2
17:48 21.6 °C 10.4 °C 1015.6 hPa WSW 11.1 km/h 12.9 km/h 49% 0.0 mm 227 W/m2
17:53 21.6 °C 10.4 °C 1015.6 hPa North 6.4 km/h 14.5 km/h 49% 0.0 mm 206 W/m2
17:58 21.4 °C 10.2 °C 1015.2 hPa WNW 14.3 km/h 14.5 km/h 49% 0.0 mm 104 W/m2
18:03 21.6 °C 10.4 °C 1015.2 hPa West 9.7 km/h 14.5 km/h 49% 0.0 mm 422 W/m2
18:08 21.8 °C 10.3 °C 1015.2 hPa WNW 13 km/h 14.5 km/h 48% 0.0 mm 120 W/m2
18:13 21.6 °C 10.4 °C 1015.6 hPa West 4.7 km/h 9.7 km/h 49% 0.0 mm 132 W/m2
18:18 21.5 °C 10.3 °C 1015.2 hPa WNW 3.2 km/h 14.5 km/h 49% 0.0 mm 148 W/m2
18:23 21.4 °C 10.5 °C 1015.6 hPa West 4.7 km/h 6.4 km/h 50% 0.0 mm 246 W/m2
18:28 21.4 °C 10.2 °C 1015.2 hPa West 9.7 km/h 11.3 km/h 49% 0.0 mm 135 W/m2
18:33 21.3 °C 10.5 °C 1015.2 hPa WSW 6.4 km/h 12.9 km/h 50% 0.0 mm 125 W/m2
18:38 21.3 °C 10.5 °C 1015.2 hPa West 6.4 km/h 9.7 km/h 50% 0.0 mm 128 W/m2
18:43 21.3 °C 10.5 °C 1015.2 hPa West 3.2 km/h 11.3 km/h 50% 0.0 mm 134 W/m2
18:48 21.3 °C 10.8 °C 1015.2 hPa Calm   9.7 km/h 51% 0.0 mm 95 W/m2
18:53 21.2 °C 10.7 °C 1015.2 hPa West 3.2 km/h 8 km/h 51% 0.0 mm 100 W/m2
18:58 21.2 °C 10.7 °C 1015.2 hPa NW 6.4 km/h 12.9 km/h 51% 0.0 mm 100 W/m2
19:03 21.2 °C 11 °C 1015.2 hPa West 4.7 km/h 6.4 km/h 52% 0.0 mm 107 W/m2
19:08 21.1 °C 10.9 °C 1015.2 hPa West 4.7 km/h 8 km/h 52% 0.0 mm 95 W/m2
19:13 21.1 °C 10.9 °C 1015.2 hPa WSW 4.7 km/h 4.8 km/h 52% 0.0 mm 81 W/m2
19:18 21.1 °C 10.6 °C 1015.2 hPa WNW 3.2 km/h 8 km/h 51% 0.0 mm 179 W/m2
19:23 21.1 °C 10.9 °C 1015.2 hPa WSW 3.2 km/h 8 km/h 52% 0.0 mm 47 W/m2
19:28 21.1 °C 10.9 °C 1015.2 hPa SW 1.4 km/h 6.4 km/h 52% 0.0 mm 90 W/m2
19:33 20.9 °C 11 °C 1014.9 hPa West 1.4 km/h 3.2 km/h 53% 0.0 mm 35 W/m2
19:38 20.8 °C 10.9 °C 1014.9 hPa West 4.7 km/h 6.4 km/h 53% 0.0 mm 35 W/m2
19:43 20.6 °C 10.7 °C 1014.9 hPa West 1.4 km/h 6.4 km/h 53% 0.0 mm 39 W/m2
19:48 20.5 °C 10.9 °C 1014.9 hPa West 3.2 km/h 4.8 km/h 54% 0.0 mm 30 W/m2
19:53 20.4 °C 11.1 °C 1015.2 hPa West 1.4 km/h 6.4 km/h 55% 0.0 mm 23 W/m2
19:58 20.3 °C 11 °C 1015.2 hPa West 4.7 km/h 4.8 km/h 55% 0.0 mm 23 W/m2
20:03 20.2 °C 10.9 °C 1015.2 hPa West 6.4 km/h 6.4 km/h 55% 0.0 mm 18 W/m2
20:08 20.2 °C 10.9 °C 1015.2 hPa WNW 1.4 km/h 1.6 km/h 55% 0.0 mm 14 W/m2
20:13 20.2 °C 10.9 °C 1015.2 hPa WSW 1.4 km/h 4.8 km/h 55% 0.0 mm 11 W/m2
20:18 20.2 °C 10.9 °C 1015.2 hPa West 1.4 km/h 3.2 km/h 55% 0.0 mm 5 W/m2
20:23 20.1 °C 11 °C 1015.2 hPa SW 1.4 km/h 3.2 km/h 56% 0.0 mm 5 W/m2
20:29 20 °C 11 °C 1015.2 hPa Calm   1.6 km/h 56% 0.0 mm 0 W/m2
20:34 19.9 °C 10.9 °C 1015.2 hPa West 1.4 km/h 3.2 km/h 56% 0.0 mm 0 W/m2
20:39 19.9 °C 11.1 °C 1015.2 hPa Calm   4.8 km/h 57% 0.0 mm 0 W/m2
20:44 19.8 °C 11 °C 1015.2 hPa WNW 1.4 km/h 3.2 km/h 57% 0.0 mm 0 W/m2
20:49 19.8 °C 11 °C 1015.2 hPa West 3.2 km/h 4.8 km/h 57% 0.0 mm 0 W/m2
20:54 19.8 °C 11 °C 1015.2 hPa SW 3.2 km/h 6.4 km/h 57% 0.0 mm 0 W/m2
20:59 19.8 °C 11 °C 1015.2 hPa West 3.2 km/h 4.8 km/h 57% 0.0 mm 0 W/m2
21:04 19.8 °C 11 °C 1015.2 hPa SW 1.4 km/h 4.8 km/h 57% 0.0 mm 0 W/m2
21:09 19.7 °C 10.9 °C 1015.2 hPa WSW 6.4 km/h 8 km/h 57% 0.0 mm 0 W/m2
21:14 19.7 °C 10.9 °C 1015.2 hPa WSW 4.7 km/h 4.8 km/h 57% 0.0 mm 0 W/m2
21:19 19.7 °C 10.9 °C 1015.6 hPa West 3.2 km/h 4.8 km/h 57% 0.0 mm 0 W/m2
21:24 19.7 °C 10.9 °C 1015.6 hPa WSW 3.2 km/h 4.8 km/h 57% 0.0 mm 0 W/m2
21:29 19.7 °C 10.9 °C 1015.6 hPa WNW 1.4 km/h 6.4 km/h 57% 0.0 mm 0 W/m2
21:34 19.6 °C 10.8 °C 1015.6 hPa West 3.2 km/h 4.8 km/h 57% 0.0 mm 0 W/m2
21:39 19.6 °C 11.1 °C 1015.6 hPa WSW 3.2 km/h 9.7 km/h 58% 0.0 mm 0 W/m2
21:44 19.4 °C 10.9 °C 1015.6 hPa West 3.2 km/h 4.8 km/h 58% 0.0 mm 0 W/m2
21:49 19.4 °C 10.9 °C 1015.6 hPa West 4.7 km/h 9.7 km/h 58% 0.0 mm 0 W/m2
21:54 19.3 °C 11.1 °C 1015.6 hPa West 3.2 km/h 4.8 km/h 59% 0.0 mm 0 W/m2
21:59 19.3 °C 11.1 °C 1015.6 hPa WSW 4.7 km/h 4.8 km/h 59% 0.0 mm 0 W/m2
22:04 19.2 °C 11 °C 1015.6 hPa West 3.2 km/h 6.4 km/h 59% 0.0 mm 0 W/m2
22:09 19.2 °C 11 °C 1015.6 hPa West 1.4 km/h 4.8 km/h 59% 0.0 mm 0 W/m2
22:14 19.2 °C 11 °C 1015.6 hPa West 1.4 km/h 6.4 km/h 59% 0.0 mm 0 W/m2
22:19 19.1 °C 11.2 °C 1015.6 hPa West 1.4 km/h 6.4 km/h 60% 0.0 mm 0 W/m2
22:24 19.1 °C 11.2 °C 1015.6 hPa West 4.7 km/h 8 km/h 60% 0.0 mm 0 W/m2
22:29 19 °C 11.1 °C 1015.6 hPa West 1.4 km/h 4.8 km/h 60% 0.0 mm 0 W/m2
22:34 18.9 °C 11.2 °C 1015.6 hPa WNW 1.4 km/h 9.7 km/h 61% 0.0 mm 0 W/m2
22:39 18.8 °C 11.1 °C 1015.6 hPa West 3.2 km/h 4.8 km/h 61% 0.0 mm 0 W/m2
22:44 18.7 °C 11 °C 1015.6 hPa West 3.2 km/h 4.8 km/h 61% 0.0 mm 0 W/m2
22:49 18.6 °C 10.9 °C 1015.6 hPa SW 3.2 km/h 6.4 km/h 61% 0.0 mm 0 W/m2
22:54 18.5 °C 11.1 °C 1015.6 hPa WSW 3.2 km/h 6.4 km/h 62% 0.0 mm 0 W/m2
22:59 18.5 °C 11.1 °C 1015.6 hPa SW 1.4 km/h 4.8 km/h 62% 0.0 mm 0 W/m2
23:04 18.4 °C 11 °C 1015.2 hPa West 3.2 km/h 4.8 km/h 62% 0.0 mm 0 W/m2
23:09 18.4 °C 11.2 °C 1015.2 hPa West 1.4 km/h 3.2 km/h 63% 0.0 mm 0 W/m2
23:14 18.2 °C 11.3 °C 1015.2 hPa Calm   6.4 km/h 64% 0.0 mm 0 W/m2
23:19 18.1 °C 11.4 °C 1015.2 hPa Calm     65% 0.0 mm 0 W/m2
23:24 17.8 °C 11.4 °C 1015.6 hPa Calm   1.6 km/h 66% 0.0 mm 0 W/m2
23:29 17.6 °C 11.4 °C 1015.6 hPa Calm     67% 0.0 mm 0 W/m2
23:34 17.3 °C 11.1 °C 1015.6 hPa Calm     67% 0.0 mm 0 W/m2
23:39 17.1 °C 11.1 °C 1015.6 hPa Calm     68% 0.0 mm 0 W/m2
23:44 16.8 °C 11.1 °C 1015.6 hPa Calm   1.6 km/h 69% 0.0 mm 0 W/m2
23:49 16.6 °C 11.1 °C 1015.6 hPa Calm     70% 0.0 mm 0 W/m2
23:55 16.3 °C 11 °C 1015.6 hPa Calm   1.6 km/h 71% 0.0 mm 0 W/m2
Juneau County Weather
Compliments of Weather Underground - 4 mb